Location: Hochstatterhof
(48.7256°N, 10.3487°E)
Time: 21:54:58
(UTC+00:00)

BREEZE-M DEB (TANK) - Pass Details

Date: 26 September 2023
Orbit: 259 x 12582 km, 49.6° (Epoch: 08 December)

Event Time Altitude Azimuth Distance (km) Brightness Sun altitude
Exits shadow 01:39:25 73° 221° (SW) 1,561 4.2 -32.6°
Maximum altitude 01:40:17 82° 159° (SSE) 1,663 4.4 -32.5°
Drops below altitude 10° 02:05:01 10° 77° (ENE) 9,609 9.3 -29.4°
Sets 02:19:09 0° 79° (E) 13,100 10.3 -27.5°
